AAR117 RJBB-RKSI

Flight info

Callsign AAR117
Flight time 1h 22m
Altitude 40000
Route SOUJA Y324 STAGE Y38 SAPRA Y685 GUKDO GUKDO3C
Aircraft A359/H-SDE2E3GHIJ1J3J4J5LM1ORWXY/LB1D1

Departure

Time 2026-05-06 16:30
Airport Kansai International Airport (RJBB)

Arrival

Time 2026-05-06 17:52
Airport Incheon International Airport (RKSI)
Time Latitude Longitude Altitude Speed Heading
2026-05-06 16:02 34.43044 135.24044 30 ft 0 kts 321°
2026-05-06 16:21 34.43029 135.24059 31 ft 4 kts 321°
2026-05-06 16:21 34.43008 135.24079 31 ft 4 kts 314°
2026-05-06 16:21 34.42995 135.24105 31 ft 4 kts 279°
2026-05-06 16:22 34.42997 135.24135 31 ft 4 kts 238°
2026-05-06 16:22 34.43001 135.24143 31 ft 0 kts 231°
2026-05-06 16:25 34.42996 135.24135 25 ft 5 kts 231°
2026-05-06 16:25 34.42956 135.24074 28 ft 14 kts 231°
2026-05-06 16:25 34.42879 135.23960 31 ft 21 kts 231°
2026-05-06 16:26 34.42789 135.23827 27 ft 20 kts 231°
2026-05-06 16:26 34.42696 135.23844 31 ft 16 kts 141°
2026-05-06 16:26 34.42602 135.23862 27 ft 12 kts 218°
2026-05-06 16:26 34.42542 135.23779 29 ft 15 kts 230°
2026-05-06 16:27 34.42471 135.23675 31 ft 17 kts 230°
2026-05-06 16:27 34.42389 135.23555 31 ft 20 kts 231°
2026-05-06 16:27 34.42300 135.23419 30 ft 21 kts 230°
2026-05-06 16:27 34.42201 135.23272 31 ft 24 kts 231°
2026-05-06 16:28 34.42093 135.23110 29 ft 26 kts 231°
2026-05-06 16:28 34.41976 135.22937 31 ft 27 kts 231°
2026-05-06 16:28 34.41890 135.22827 28 ft 13 kts 197°
2026-05-06 16:28 34.41796 135.22889 23 ft 18 kts 140°
2026-05-06 16:29 34.41790 135.23009 22 ft 16 kts 53°
2026-05-06 16:29 34.41813 135.23040 20 ft 3 kts 48°
2026-05-06 16:29 34.41988 135.23298 21 ft 79 kts 51°
2026-05-06 16:29 34.42491 135.24049 22 ft 146 kts 51°
2026-05-06 16:30 34.43195 135.25104 438 ft 166 kts 51°
2026-05-06 16:30 34.43671 135.25820 1067 ft 160 kts 51°
2026-05-06 16:30 34.44719 135.27214 1708 ft 187 kts 45°
2026-05-06 16:30 34.45716 135.28398 2023 ft 215 kts 45°
2026-05-06 16:31 34.46938 135.29659 2307 ft 247 kts 28°
2026-05-06 16:31 34.48626 135.30290 2975 ft 260 kts 11°
2026-05-06 16:31 34.50450 135.30454 3775 ft 267 kts 353°
2026-05-06 16:31 34.52201 135.29755 4644 ft 267 kts 327°
2026-05-06 16:32 34.53510 135.28194 5548 ft 266 kts 300°
2026-05-06 16:32 34.54241 135.26144 6473 ft 267 kts 287°
2026-05-06 16:32 34.54795 135.23980 7347 ft 270 kts 285°
2026-05-06 16:32 34.55345 135.21784 8272 ft 274 kts 286°
2026-05-06 16:33 34.55914 135.19556 9219 ft 278 kts 286°
2026-05-06 16:33 34.56497 135.17304 10139 ft 282 kts 286°
2026-05-06 16:33 34.57106 135.14966 10655 ft 301 kts 286°
2026-05-06 16:34 34.58464 135.09773 11417 ft 342 kts 286°
2026-05-06 16:34 34.59195 135.06985 12071 ft 350 kts 286°
2026-05-06 16:34 34.59941 135.04151 12854 ft 355 kts 286°
2026-05-06 16:34 34.60688 135.01282 13640 ft 358 kts 285°
2026-05-06 16:35 34.61194 134.98317 14325 ft 361 kts 275°
2026-05-06 16:35 34.61432 134.95266 14941 ft 366 kts 273°
2026-05-06 16:35 34.61626 134.92171 15570 ft 370 kts 273°
2026-05-06 16:35 34.61822 134.89030 16190 ft 375 kts 274°
2026-05-06 16:36 34.62024 134.85855 16821 ft 380 kts 274°
2026-05-06 16:36 34.62230 134.82643 17448 ft 384 kts 274°
2026-05-06 16:36 34.62432 134.79385 18082 ft 388 kts 273°
2026-05-06 16:36 34.62427 134.76092 18660 ft 393 kts 267°
2026-05-06 16:37 34.62228 134.72773 19240 ft 396 kts 265°
2026-05-06 16:37 34.61995 134.69430 19838 ft 399 kts 265°
2026-05-06 16:37 34.61760 134.66069 20456 ft 401 kts 265°
2026-05-06 16:37 34.61525 134.62676 21066 ft 404 kts 265°
2026-05-06 16:38 34.61288 134.59267 21684 ft 407 kts 266°
2026-05-06 16:38 34.61051 134.55838 22317 ft 409 kts 266°
2026-05-06 16:38 34.60812 134.52380 22934 ft 412 kts 266°
2026-05-06 16:38 34.60570 134.48901 23554 ft 416 kts 266°
2026-05-06 16:39 34.60325 134.45390 24088 ft 419 kts 266°
2026-05-06 16:39 34.60077 134.41840 24530 ft 424 kts 266°
2026-05-06 16:39 34.59825 134.38258 25057 ft 428 kts 266°
2026-05-06 16:39 34.59570 134.34651 25578 ft 431 kts 266°
2026-05-06 16:40 34.59312 134.31008 26086 ft 435 kts 266°
2026-05-06 16:40 34.59051 134.27341 26597 ft 438 kts 266°
2026-05-06 16:40 34.58787 134.23643 27094 ft 442 kts 266°
2026-05-06 16:40 34.58519 134.19911 27624 ft 445 kts 266°
2026-05-06 16:41 34.58249 134.16161 28132 ft 448 kts 266°
2026-05-06 16:41 34.57974 134.12374 28618 ft 452 kts 266°
2026-05-06 16:41 34.57698 134.08562 29052 ft 456 kts 266°
2026-05-06 16:41 34.57604 134.04702 29477 ft 459 kts 274°
2026-05-06 16:42 34.57995 134.00854 29964 ft 461 kts 282°
2026-05-06 16:42 34.58643 133.97039 30403 ft 463 kts 283°
2026-05-06 16:42 34.59332 133.93206 30807 ft 466 kts 283°
2026-05-06 16:42 34.60022 133.89355 31209 ft 468 kts 283°
2026-05-06 16:43 34.60711 133.85487 31592 ft 470 kts 283°
2026-05-06 16:43 34.61419 133.81601 31977 ft 472 kts 285°
2026-05-06 16:43 34.62414 133.77794 32314 ft 474 kts 292°
2026-05-06 16:43 34.63883 133.74212 32648 ft 476 kts 302°
2026-05-06 16:44 34.65822 133.70950 32988 ft 477 kts 311°
2026-05-06 16:44 34.68144 133.68065 33323 ft 479 kts 316°
2026-05-06 16:44 34.70597 133.65316 33701 ft 479 kts 318°
2026-05-06 16:44 34.73083 133.62632 34207 ft 477 kts 319°
2026-05-06 16:45 34.75571 133.59982 34625 ft 475 kts 319°
2026-05-06 16:45 34.78052 133.57339 35042 ft 473 kts 319°
2026-05-06 16:45 34.80518 133.54697 35429 ft 472 kts 318°
2026-05-06 16:45 34.82970 133.52055 35815 ft 470 kts 318°
2026-05-06 16:46 34.85407 133.49415 36208 ft 469 kts 318°
2026-05-06 16:46 34.87837 133.46773 36571 ft 467 kts 318°
2026-05-06 16:46 34.90257 133.44136 36906 ft 467 kts 318°
2026-05-06 16:46 34.92643 133.41534 37227 ft 466 kts 318°
2026-05-06 16:47 34.95055 133.38901 37556 ft 465 kts 317°
2026-05-06 16:47 34.97461 133.36273 37876 ft 464 kts 317°
2026-05-06 16:47 34.99863 133.33647 38179 ft 463 kts 317°
2026-05-06 16:47 35.02263 133.31023 38460 ft 463 kts 317°
2026-05-06 16:48 35.04690 133.28366 38752 ft 462 kts 317°
2026-05-06 16:48 35.07083 133.25744 38979 ft 462 kts 317°
2026-05-06 16:48 35.09473 133.23124 39187 ft 462 kts 317°
2026-05-06 16:48 35.11835 133.20532 39385 ft 462 kts 317°
2026-05-06 16:49 35.14228 133.17904 39565 ft 463 kts 316°
2026-05-06 16:49 35.16622 133.15273 39726 ft 463 kts 316°
2026-05-06 16:49 35.19017 133.12638 39930 ft 463 kts 316°
2026-05-06 16:49 35.21411 133.10003 40052 ft 464 kts 316°
2026-05-06 16:50 35.23811 133.07359 40071 ft 464 kts 316°
2026-05-06 16:50 35.28598 133.02078 40064 ft 464 kts 316°
2026-05-06 16:51 35.33386 132.96788 40049 ft 464 kts 316°
2026-05-06 16:51 35.38172 132.91491 40048 ft 464 kts 316°
2026-05-06 16:52 35.42955 132.86188 40047 ft 464 kts 316°
2026-05-06 16:52 35.47740 132.80876 40047 ft 464 kts 316°
2026-05-06 16:53 35.52513 132.75552 40050 ft 463 kts 314°
2026-05-06 16:53 35.56554 132.69465 40054 ft 459 kts 299°
2026-05-06 16:54 35.58965 132.62255 40057 ft 457 kts 282°
2026-05-06 16:54 35.60140 132.54589 40058 ft 457 kts 279°
2026-05-06 16:55 35.61101 132.46879 40056 ft 457 kts 278°
2026-05-06 16:55 35.62055 132.39164 40061 ft 457 kts 278°
2026-05-06 16:56 35.62866 132.32759 40051 ft 456 kts 279°
2026-05-06 16:56 35.64018 132.23766 40050 ft 456 kts 279°
2026-05-06 16:57 35.65002 132.16071 40055 ft 455 kts 279°
2026-05-06 16:57 35.65814 132.09681 40047 ft 455 kts 279°
2026-05-06 16:58 35.66786 132.01992 40045 ft 456 kts 278°
2026-05-06 16:58 35.67753 131.94292 40046 ft 456 kts 278°
2026-05-06 16:59 35.68715 131.86592 40046 ft 455 kts 278°
2026-05-06 16:59 35.69673 131.78890 40046 ft 455 kts 278°
2026-05-06 17:00 35.70622 131.71212 40043 ft 452 kts 278°
2026-05-06 17:00 35.71561 131.63587 40045 ft 450 kts 278°
2026-05-06 17:01 35.72492 131.55970 40058 ft 450 kts 278°
2026-05-06 17:01 35.73416 131.48372 40036 ft 447 kts 278°
2026-05-06 17:02 35.74330 131.40813 40037 ft 447 kts 278°
2026-05-06 17:02 35.75242 131.33242 40041 ft 447 kts 278°
2026-05-06 17:03 35.76146 131.25686 40029 ft 445 kts 278°
2026-05-06 17:03 35.77043 131.18152 40034 ft 444 kts 278°
2026-05-06 17:04 35.77935 131.10622 40033 ft 444 kts 278°
2026-05-06 17:04 35.78821 131.03099 40032 ft 444 kts 278°
2026-05-06 17:05 35.79702 130.95570 40026 ft 444 kts 278°
2026-05-06 17:05 35.80579 130.88048 40029 ft 442 kts 277°
2026-05-06 17:06 35.81441 130.80608 40013 ft 437 kts 277°
2026-05-06 17:06 35.82295 130.73188 40024 ft 439 kts 277°
2026-05-06 17:07 35.83198 130.65746 40026 ft 439 kts 278°
2026-05-06 17:07 35.84162 130.58310 40023 ft 439 kts 278°
2026-05-06 17:08 35.85120 130.50876 40018 ft 439 kts 278°
2026-05-06 17:08 35.86062 130.43440 40019 ft 438 kts 278°
2026-05-06 17:09 35.86990 130.36035 40018 ft 436 kts 278°
2026-05-06 17:09 35.87910 130.28652 40018 ft 436 kts 278°
2026-05-06 17:10 35.88826 130.21270 40022 ft 434 kts 278°
2026-05-06 17:10 35.89727 130.13967 40009 ft 433 kts 278°
2026-05-06 17:11 35.90631 130.06608 40009 ft 435 kts 278°
2026-05-06 17:11 35.91532 129.99227 40009 ft 434 kts 278°
2026-05-06 17:12 35.92426 129.91878 40000 ft 433 kts 278°
2026-05-06 17:12 35.93312 129.84544 40001 ft 432 kts 278°
2026-05-06 17:13 35.94196 129.77209 40008 ft 432 kts 277°
2026-05-06 17:13 35.95071 129.69888 40000 ft 431 kts 277°
2026-05-06 17:14 35.95940 129.62578 40005 ft 431 kts 277°
2026-05-06 17:14 35.96805 129.55265 40012 ft 430 kts 277°
2026-05-06 17:15 35.98239 129.48094 40010 ft 433 kts 289°
2026-05-06 17:15 36.01131 129.41537 40010 ft 438 kts 300°
2026-05-06 17:16 36.04634 129.35352 40012 ft 440 kts 302°
2026-05-06 17:16 36.08221 129.29227 40018 ft 440 kts 301°
2026-05-06 17:17 36.11767 129.23134 40012 ft 439 kts 301°
2026-05-06 17:17 36.15312 129.16983 40012 ft 439 kts 301°
2026-05-06 17:18 36.18847 129.10813 40026 ft 439 kts 301°
2026-05-06 17:18 36.22400 129.04611 40021 ft 438 kts 301°
2026-05-06 17:19 36.25899 128.98492 40020 ft 438 kts 301°
2026-05-06 17:19 36.29417 128.92330 40015 ft 438 kts 301°
2026-05-06 17:20 36.32936 128.86164 40019 ft 438 kts 300°
2026-05-06 17:20 36.36442 128.79998 40018 ft 438 kts 300°
2026-05-06 17:21 36.39944 128.73823 40016 ft 437 kts 300°
2026-05-06 17:21 36.43441 128.67649 40016 ft 437 kts 300°
2026-05-06 17:22 36.46934 128.61473 40013 ft 437 kts 300°
2026-05-06 17:22 36.50424 128.55291 39983 ft 437 kts 300°
2026-05-06 17:22 36.52107 128.52306 39748 ft 436 kts 300°
2026-05-06 17:23 36.53213 128.50345 39607 ft 436 kts 300°
2026-05-06 17:23 36.54794 128.47539 39410 ft 435 kts 300°
2026-05-06 17:23 36.56528 128.44456 39178 ft 435 kts 300°
2026-05-06 17:23 36.58259 128.41376 38944 ft 435 kts 300°
2026-05-06 17:24 36.59992 128.38290 38715 ft 434 kts 299°
2026-05-06 17:24 36.61720 128.35208 38436 ft 435 kts 299°
2026-05-06 17:24 36.63452 128.32118 38171 ft 435 kts 299°
2026-05-06 17:24 36.65198 128.29029 37905 ft 437 kts 300°
2026-05-06 17:25 36.66958 128.25941 37618 ft 437 kts 300°
2026-05-06 17:25 36.68713 128.22870 37019 ft 434 kts 300°
2026-05-06 17:25 36.70461 128.19809 36349 ft 434 kts 300°
2026-05-06 17:25 36.72210 128.16742 35656 ft 435 kts 300°
2026-05-06 17:26 36.73967 128.13666 34906 ft 437 kts 300°
2026-05-06 17:26 36.75729 128.10565 34103 ft 440 kts 300°
2026-05-06 17:26 36.77501 128.07434 33186 ft 444 kts 300°
2026-05-06 17:26 36.79284 128.04279 32299 ft 446 kts 300°
2026-05-06 17:27 36.81075 128.01109 31403 ft 449 kts 300°
2026-05-06 17:27 36.82881 127.97912 30484 ft 452 kts 300°
2026-05-06 17:27 36.84689 127.94700 29697 ft 452 kts 300°
2026-05-06 17:27 36.86493 127.91515 29023 ft 447 kts 300°
2026-05-06 17:28 36.88277 127.88361 28380 ft 442 kts 300°
2026-05-06 17:28 36.90036 127.85237 27737 ft 438 kts 300°
2026-05-06 17:28 36.91779 127.82137 27085 ft 435 kts 300°
2026-05-06 17:28 36.93509 127.79055 26446 ft 431 kts 300°
2026-05-06 17:29 36.95227 127.76005 25805 ft 428 kts 300°
2026-05-06 17:29 36.96932 127.72973 25186 ft 425 kts 300°
2026-05-06 17:29 36.98625 127.69957 24557 ft 422 kts 300°
2026-05-06 17:29 37.00306 127.66962 23926 ft 419 kts 300°
2026-05-06 17:30 37.01977 127.63985 23252 ft 417 kts 300°
2026-05-06 17:30 37.03641 127.61024 22575 ft 414 kts 300°
2026-05-06 17:30 37.05282 127.58083 22057 ft 407 kts 300°
2026-05-06 17:30 37.06871 127.55236 21909 ft 391 kts 300°
2026-05-06 17:31 37.08397 127.52504 21787 ft 375 kts 300°
2026-05-06 17:31 37.09861 127.49881 21644 ft 361 kts 299°
2026-05-06 17:31 37.11271 127.47353 21543 ft 347 kts 299°
2026-05-06 17:31 37.12628 127.44916 21389 ft 335 kts 299°
2026-05-06 17:32 37.13940 127.42566 21232 ft 323 kts 299°
2026-05-06 17:32 37.15203 127.40294 21085 ft 313 kts 298°
2026-05-06 17:32 37.16424 127.38089 20940 ft 304 kts 298°
2026-05-06 17:32 37.17626 127.35912 20535 ft 304 kts 298°
2026-05-06 17:33 37.18829 127.33735 20135 ft 304 kts 298°
2026-05-06 17:33 37.20035 127.31564 19780 ft 303 kts 298°
2026-05-06 17:33 37.21234 127.29394 19403 ft 302 kts 298°
2026-05-06 17:33 37.22430 127.27228 19049 ft 302 kts 298°
2026-05-06 17:34 37.23624 127.25064 18682 ft 302 kts 299°
2026-05-06 17:34 37.24822 127.22896 18300 ft 302 kts 298°
2026-05-06 17:34 37.26022 127.20725 17870 ft 302 kts 299°
2026-05-06 17:34 37.27217 127.18562 17492 ft 301 kts 299°
2026-05-06 17:35 37.28408 127.16406 17119 ft 300 kts 299°
2026-05-06 17:35 37.29592 127.14257 16750 ft 299 kts 299°
2026-05-06 17:35 37.30773 127.12114 16371 ft 298 kts 300°
2026-05-06 17:36 37.33120 127.07852 15631 ft 295 kts 300°
2026-05-06 17:36 37.34287 127.05732 15259 ft 295 kts 300°
2026-05-06 17:36 37.35449 127.03619 14893 ft 293 kts 300°
2026-05-06 17:36 37.36604 127.01518 14530 ft 291 kts 301°
2026-05-06 17:37 37.37754 126.99423 14166 ft 291 kts 301°
2026-05-06 17:37 37.38901 126.97333 13792 ft 290 kts 301°
2026-05-06 17:37 37.40041 126.95254 13387 ft 288 kts 301°
2026-05-06 17:37 37.41192 126.93203 13065 ft 287 kts 304°
2026-05-06 17:38 37.42487 126.91273 12823 ft 290 kts 308°
2026-05-06 17:38 37.43842 126.89394 12357 ft 290 kts 309°
2026-05-06 17:38 37.45202 126.87524 11904 ft 289 kts 309°
2026-05-06 17:38 37.46553 126.85669 11521 ft 285 kts 309°
2026-05-06 17:39 37.47883 126.83834 11151 ft 282 kts 309°
2026-05-06 17:39 37.49201 126.82012 10792 ft 281 kts 309°
2026-05-06 17:39 37.50513 126.80198 10452 ft 278 kts 309°
2026-05-06 17:39 37.51792 126.78429 10264 ft 268 kts 309°
2026-05-06 17:40 37.52614 126.77292 10153 ft 262 kts 309°
2026-05-06 17:40 37.54196 126.75102 9948 ft 249 kts 308°
2026-05-06 17:40 37.55340 126.73526 9758 ft 240 kts 309°
2026-05-06 17:40 37.56453 126.71983 9456 ft 236 kts 308°
2026-05-06 17:41 37.57552 126.70450 9096 ft 235 kts 308°
2026-05-06 17:41 37.58648 126.68923 8769 ft 234 kts 308°
2026-05-06 17:41 37.59384 126.67898 8536 ft 233 kts 308°
2026-05-06 17:41 37.60820 126.65900 8104 ft 231 kts 308°
2026-05-06 17:42 37.61549 126.64887 7880 ft 230 kts 308°
2026-05-06 17:42 37.62877 126.62832 7364 ft 225 kts 296°
2026-05-06 17:42 37.63347 126.61645 7049 ft 223 kts 290°
2026-05-06 17:42 37.63936 126.59832 6700 ft 223 kts 288°
2026-05-06 17:43 37.64503 126.58022 6401 ft 221 kts 288°
2026-05-06 17:43 37.65072 126.56224 6050 ft 221 kts 288°
2026-05-06 17:43 37.65643 126.54425 5682 ft 221 kts 287°
2026-05-06 17:43 37.66211 126.52630 5359 ft 220 kts 287°
2026-05-06 17:44 37.66778 126.50837 5036 ft 219 kts 286°
2026-05-06 17:44 37.67176 126.49002 4711 ft 215 kts 275°
2026-05-06 17:44 37.67394 126.47157 4381 ft 211 kts 272°
2026-05-06 17:44 37.67575 126.45356 4112 ft 209 kts 272°
2026-05-06 17:45 37.67756 126.43534 3825 ft 208 kts 272°
2026-05-06 17:45 37.67927 126.41730 3555 ft 206 kts 270°
2026-05-06 17:45 37.67869 126.39953 3422 ft 202 kts 258°
2026-05-06 17:45 37.67651 126.38193 3491 ft 204 kts 257°
2026-05-06 17:46 37.67424 126.36466 3411 ft 194 kts 257°
2026-05-06 17:46 37.67072 126.34884 3308 ft 182 kts 240°
2026-05-06 17:46 37.66271 126.33731 3219 ft 169 kts 219°
2026-05-06 17:46 37.65363 126.32857 3231 ft 166 kts 217°
2026-05-06 17:47 37.64408 126.31995 3226 ft 170 kts 215°
2026-05-06 17:47 37.63285 126.31529 3201 ft 179 kts 181°
2026-05-06 17:47 37.62076 126.31915 3184 ft 177 kts 164°
2026-05-06 17:47 37.61056 126.32713 3072 ft 167 kts 149°
2026-05-06 17:48 37.60166 126.33539 2883 ft 153 kts 154°
2026-05-06 17:48 37.59307 126.34284 2676 ft 146 kts 154°
2026-05-06 17:48 37.58498 126.34998 2489 ft 139 kts 155°
2026-05-06 17:48 37.57710 126.35699 2295 ft 138 kts 155°
2026-05-06 17:49 37.56926 126.36399 2105 ft 137 kts 155°
2026-05-06 17:49 37.56160 126.37083 1916 ft 133 kts 155°
2026-05-06 17:49 37.55408 126.37755 1738 ft 132 kts 155°
2026-05-06 17:49 37.54656 126.38406 1524 ft 130 kts 155°
2026-05-06 17:50 37.53909 126.39052 1370 ft 131 kts 152°
2026-05-06 17:50 37.53177 126.39739 1222 ft 131 kts 149°
2026-05-06 17:50 37.52442 126.40424 1041 ft 132 kts 150°
2026-05-06 17:50 37.51690 126.41072 820 ft 130 kts 149°
2026-05-06 17:51 37.50950 126.41714 618 ft 128 kts 143°
2026-05-06 17:51 37.50234 126.42393 518 ft 131 kts 145°
2026-05-06 17:51 37.49494 126.43038 354 ft 131 kts 147°
2026-05-06 17:51 37.48758 126.43695 156 ft 130 kts 143°
2026-05-06 17:52 37.48032 126.44345 37 ft 124 kts 144°
2026-05-06 17:52 37.47434 126.44872 39 ft 83 kts 144°
2026-05-06 17:52 37.47089 126.45181 39 ft 43 kts 144°
2026-05-06 17:52 37.46842 126.45371 39 ft 39 kts 160°
2026-05-06 17:53 37.46652 126.45396 39 ft 12 kts 217°
2026-05-06 17:53 37.46655 126.45302 39 ft 12 kts 316°
2026-05-06 17:53 37.46730 126.45231 39 ft 15 kts 324°
2026-05-06 17:53 37.46822 126.45148 39 ft 18 kts 324°
2026-05-06 17:54 37.46892 126.45043 39 ft 14 kts 264°
2026-05-06 17:54 37.46838 126.44933 39 ft 16 kts 234°
2026-05-06 17:54 37.46763 126.44804 39 ft 20 kts 233°
2026-05-06 17:54 37.46714 126.44643 39 ft 20 kts 257°
2026-05-06 17:55 37.46638 126.44486 39 ft 22 kts 233°
2026-05-06 17:55 37.46677 126.44366 39 ft 18 kts 327°
2026-05-06 17:55 37.46789 126.44269 39 ft 19 kts 323°
2026-05-06 17:55 37.46817 126.44208 39 ft 5 kts 251°
2026-05-06 17:56 37.46787 126.44167 39 ft 8 kts 222°
2026-05-06 17:56 37.46776 126.44156 39 ft 1 kts 221°
2026-05-06 17:56 37.46763 126.44142 39 ft 4 kts 220°
2026-05-06 17:56 37.46758 126.44136 39 ft 0 kts 220°
2026-05-06 17:57 37.46757 126.44135 39 ft 1 kts 220°
2026-05-06 17:57 37.46755 126.44133 39 ft 1 kts 220°